SL-16 DEB, 23275

Orbit data source: Space-Track

SL-16 DEB, 23275 is space debris in LEO originally from a launch on Fri, 25 Dec 1992 UTC launched from the Tyuratam Missile And Space Complex (TTMTR). Debris objects in space refer to the collection of defunct objects orbiting the Earth. Examples of debris include non-operational satellites, rocket bodies, and fragments generated from explosions, collisions, or faulty payload assembly.

Loading next visibility...
Identifier
23275, 1992-093JF
Orbit
LEO
Country
Flag of CISCIS
Related business
Manufacturer
Unknown
Mission
Spacecraft
Bus & Motor
Unknown
Mass
Unknown
Launch date (UTC)
1992-12-25 (33 years ago)
Launch vehicle
Unknown
Launch site
Tyuratam Missile And Space Complex (TTMTR)
Object type
Payload
Rocket body
Debris
Shape & HBR
Unknown shape, 0.1 m
Radar Cross Section
Small (<0.1 m²)

Expand to show TLE details & history
Last TLE update: 1 day ago

TLE from 1 day ago
0 SL-16 DEB
1 23275U 92093JF  25347.36820755  .00000561  00000-0  40338-3 0  9992
2 23275  71.2460 219.2191 0105948 295.5767  63.4427 13.98434290635209
Epoch: 2025-12-13T08:50Z
TLE epoch observation values (Epoch: 2025-12-13T08:50:13.132Z)
Latitude
Longitude
4.3679°
Altitude
867.801 km
Speed
7.436 km/s
True Right ascension
14h 36m 52s
True Declination
0° 00' 00"
Sunlit
Object was in daylight at epoch
Visualization orbit readout
Latitude
Unknown
Longitude
Unknown
Altitude
Unknown
Speed
Unknown
Apparent Right ascension
Unknown
Apparent Declination
Unknown
Sunlit
N/A
Visualization observer readout
Local Sidereal Time
09:21:21
Azimuth
Unknown
Elevation
Unknown
Doppler factor
Unknown
Orbital elements
Apogee altitude
974.219 km
Perigee altitude
820.059 km
Semi-major axis
7,275.276 km
Eccentricity
0.01059
Inclination
71.246°
RAAN
219.2191°
Arg. of periapsis
295.5767°
True anomaly
64.53508°
Mean anomaly
63.4427°
Eccentric anomaly
63.98825°
Mean motion
3.49759 °/min
Orbital period
102.93 mins
BSTAR
0.00040338
Loading maneuver chart data...
Computing Atmospheric mass density...
Loading historical data...
Loading historical data...
Loading historical data...
Loading historical data...
Loading historical data...
Loading historical data...
Loading historical data...

Documentation

Showing up to 5 results
|